When you browse on this site, cookies collect data to enhance your experience and personalize the content and advertising you see.
Visit our Privacy Policy to learn more. By continuing to use the site, you agree to this use of cookies and data.
  • en France
  • Liste des pays
  • À 7 jours
  • Température de l'eau
  • Carte météo
  • Widgets météo
  • user-avatar
    Se connecter

    Météo par heure à Nuremberg

    Ce jour, 9 Avril, Jeudi

    Heure Température Précipitation Vent Pression Humidité
    00:00 +10°C° 0 mm 0 m/s 738 mmHg 60%
    01:00 +9°C° 0 mm 0 m/s 738 mmHg 61%
    02:00 +9°C° 0 mm 0 m/s 738 mmHg 62%
    03:00 +8°C° 0 mm 0 m/s 738 mmHg 63%
    04:00 +8°C° 0 mm 0 m/s 738 mmHg 65%
    05:00 +9°C° 0 mm 0 m/s 738 mmHg 65%
    06:00 +10°C° 0 mm 0 m/s 739 mmHg 65%
    07:00 +10°C° 0 mm 0 m/s 739 mmHg 65%
    08:00 +13°C° 0 mm 0 m/s 739 mmHg 58%
    09:00 +15°C° 0 mm 0 m/s 739 mmHg 51%
    10:00 +20°C° 0 mm 1 m/s 740 mmHg 44%
    11:00 +21°C° 0 mm 1 m/s 740 mmHg 41%
    12:00 +22°C° 0 mm 1 m/s 740 mmHg 39%
    13:00 +21°C° 0 mm 2 m/s 740 mmHg 36%
    14:00 +21°C° 0 mm 2 m/s 739 mmHg 39%
    15:00 +20°C° 0 mm 2 m/s 739 mmHg 42%
    16:00 +20°C° 0 mm 2 m/s 739 mmHg 45%
    17:00 +18°C° 0 mm 2 m/s 739 mmHg 51%
    18:00 +16°C° 0 mm 1 m/s 739 mmHg 58%
    19:00 +15°C° 0 mm 1 m/s 739 mmHg 64%
    20:00 +14°C° 0 mm 1 m/s 739 mmHg 66%
    21:00 +14°C° 0 mm 1 m/s 740 mmHg 69%
    22:00 +13°C° 0 mm 1 m/s 740 mmHg 71%
    23:00 +13°C° 0 mm 1 m/s 740 mmHg 75%

    Demain, 10 Avril, Vendredi

    Heure Température Précipitation Vent Pression Humidité
    00:00 +12°C° 0 mm 1 m/s 740 mmHg 79%
    01:00 +11°C° 0 mm 1 m/s 741 mmHg 82%
    02:00 +11°C° 0 mm 1 m/s 740 mmHg 85%
    03:00 +10°C° 0 mm 1 m/s 740 mmHg 87%
    04:00 +9°C° 0 mm 1 m/s 740 mmHg 89%
    05:00 +10°C° 0 mm 1 m/s 740 mmHg 86%
    06:00 +10°C° 0 mm 1 m/s 741 mmHg 84%
    07:00 +11°C° 0 mm 1 m/s 741 mmHg 81%
    08:00 +13°C° 0 mm 1 m/s 741 mmHg 73%
    09:00 +15°C° 0 mm 1 m/s 741 mmHg 64%
    10:00 +18°C° 0 mm 1 m/s 741 mmHg 56%
    11:00 +19°C° 0 mm 1 m/s 741 mmHg 52%
    12:00 +20°C° 0 mm 1 m/s 740 mmHg 47%
    13:00 +21°C° 0 mm 1 m/s 740 mmHg 42%
    14:00 +20°C° 0 mm 2 m/s 740 mmHg 42%
    15:00 +20°C° 0 mm 2 m/s 739 mmHg 42%
    16:00 +20°C° 0 mm 2 m/s 739 mmHg 42%
    17:00 +18°C° 0 mm 2 m/s 739 mmHg 50%
    18:00 +16°C° 0 mm 2 m/s 739 mmHg 57%
    19:00 +14°C° 0 mm 2 m/s 739 mmHg 64%
    20:00 +13°C° 0 mm 2 m/s 739 mmHg 68%
    21:00 +10°C° 0 mm 2 m/s 739 mmHg 72%
    22:00 +9°C° 0 mm 2 m/s 740 mmHg 76%
    23:00 +10°C° 0 mm 1 m/s 740 mmHg 79%

    Après-demain, 11 Avril, Samedi

    Heure Température Précipitation Vent Pression Humidité
    00:00 +9°C° 0 mm 1 m/s 740 mmHg 81%
    01:00 +8°C° 0 mm 1 m/s 740 mmHg 83%
    02:00 +8°C° 0 mm 1 m/s 740 mmHg 85%
    03:00 +8°C° 0 mm 1 m/s 740 mmHg 86%
    04:00 +7°C° 0 mm 1 m/s 740 mmHg 88%
    05:00 +8°C° 0 mm 1 m/s 740 mmHg 85%
    06:00 +8°C° 0 mm 1 m/s 740 mmHg 82%
    07:00 +9°C° 0 mm 1 m/s 740 mmHg 79%
    08:00 +11°C° 0 mm 1 m/s 740 mmHg 70%
    09:00 +13°C° 0 mm 1 m/s 740 mmHg 61%
    10:00 +16°C° 0 mm 1 m/s 740 mmHg 52%
    11:00 +18°C° 0 mm 1 m/s 740 mmHg 46%
    12:00 +20°C° 0 mm 1 m/s 740 mmHg 40%
    13:00 +21°C° 0 mm 1 m/s 739 mmHg 34%
    14:00 +21°C° 0 mm 1 m/s 739 mmHg 34%
    15:00 +21°C° 0 mm 1 m/s 738 mmHg 33%
    16:00 +21°C° 0 mm 1 m/s 738 mmHg 32%
    17:00 +19°C° 0 mm 1 m/s 738 mmHg 39%
    18:00 +15°C° 0 mm 1 m/s 737 mmHg 46%
    19:00 +13°C° 0 mm 1 m/s 737 mmHg 52%
    20:00 +12°C° 0 mm 1 m/s 737 mmHg 56%
    21:00 +11°C° 0 mm 1 m/s 737 mmHg 61%
    22:00 +10°C° 0 mm 1 m/s 737 mmHg 65%
    23:00 +10°C° 0 mm 1 m/s 737 mmHg 67%

    12 Avril, Dimanche

    Heure Température Précipitation Vent Pression Humidité
    00:00 +9°C° 0 mm 1 m/s 737 mmHg 70%
    01:00 +9°C° 0 mm 1 m/s 737 mmHg 72%
    02:00 +9°C° 0 mm 1 m/s 736 mmHg 75%
    03:00 +8°C° 0 mm 1 m/s 736 mmHg 77%
    04:00 +8°C° 0 mm 1 m/s 735 mmHg 80%
    05:00 +9°C° 0 mm 1 m/s 735 mmHg 79%
    06:00 +10°C° 0 mm 1 m/s 735 mmHg 78%
    07:00 +10°C° 0 mm 1 m/s 735 mmHg 77%
    08:00 +13°C° 0 mm 1 m/s 735 mmHg 69%
    09:00 +15°C° 0 mm 2 m/s 735 mmHg 61%
    10:00 +18°C° 0 mm 2 m/s 734 mmHg 53%
    11:00 +19°C° 0 mm 2 m/s 734 mmHg 51%
    12:00 +21°C° 0 mm 1 m/s 733 mmHg 48%
    13:00 +22°C° 0 mm 1 m/s 733 mmHg 46%
    14:00 +22°C° 0 mm 1 m/s 732 mmHg 45%
    15:00 +21°C° 0 mm 2 m/s 732 mmHg 44%
    16:00 +21°C° 0 mm 2 m/s 731 mmHg 44%
    17:00 +20°C° 0 mm 1 m/s 731 mmHg 52%
    18:00 +18°C° 0 mm 1 m/s 731 mmHg 60%
    19:00 +15°C° 0 mm 1 m/s 730 mmHg 68%
    20:00 +14°C° 0 mm 1 m/s 731 mmHg 70%
    21:00 +12°C° 0 mm 0 m/s 731 mmHg 72%
    22:00 +12°C° 0 mm 0 m/s 731 mmHg 75%
    23:00 +11°C° 0 mm 0 m/s 731 mmHg 76%

    13 Avril, Lundi

    Heure Température Précipitation Vent Pression Humidité
    00:00 +12°C° 0 mm 1 m/s 731 mmHg 76%
    01:00 +12°C° 0 mm 1 m/s 731 mmHg 77%
    02:00 +11°C° 0 mm 1 m/s 731 mmHg 80%
    03:00 +11°C° 0 mm 1 m/s 731 mmHg 82%
    04:00 +10°C° 0 mm 2 m/s 732 mmHg 84%
    05:00 +12°C° 0 mm 2 m/s 732 mmHg 82%
    06:00 +12°C° 0 mm 2 m/s 732 mmHg 80%
    07:00 +13°C° 0 mm 2 m/s 733 mmHg 77%
    08:00 +15°C° 0 mm 2 m/s 733 mmHg 70%
    09:00 +16°C° 0 mm 2 m/s 733 mmHg 63%
    10:00 +18°C° 0 mm 3 m/s 734 mmHg 56%
    11:00 +19°C° 0.1 mm 3 m/s 734 mmHg 53%
    12:00 +19°C° 0.1 mm 3 m/s 734 mmHg 51%
    13:00 +20°C° 0.1 mm 3 m/s 734 mmHg 48%
    14:00 +20°C° 0 mm 4 m/s 734 mmHg 48%
    15:00 +20°C° 0 mm 4 m/s 734 mmHg 47%
    16:00 +20°C° 0 mm 4 m/s 734 mmHg 46%
    17:00 +18°C° 0.2 mm 3 m/s 734 mmHg 57%
    18:00 +16°C° 0.2 mm 3 m/s 734 mmHg 67%
    19:00 +14°C° 0.2 mm 2 m/s 734 mmHg 78%
    20:00 +13°C° 0.1 mm 2 m/s 735 mmHg 82%
    21:00 +12°C° 0.1 mm 2 m/s 736 mmHg 87%
    22:00 +10°C° 0.1 mm 2 m/s 737 mmHg 92%
    23:00 +9°C° 0 mm 2 m/s 737 mmHg 92%

    14 Avril, Mardi

    Heure Température Précipitation Vent Pression Humidité
    00:00 +9°C° 0 mm 2 m/s 738 mmHg 93%
    01:00 +8°C° 0 mm 2 m/s 738 mmHg 93%
    02:00 +7°C° 0 mm 2 m/s 738 mmHg 94%
    03:00 +7°C° 0 mm 2 m/s 739 mmHg 94%
    04:00 +6°C° 0 mm 2 m/s 739 mmHg 95%
    05:00 +6°C° 0 mm 2 m/s 739 mmHg 92%
    06:00 +6°C° 0 mm 2 m/s 740 mmHg 90%
    07:00 +7°C° 0 mm 2 m/s 740 mmHg 88%
    08:00 +8°C° 0 mm 2 m/s 740 mmHg 79%
    09:00 +10°C° 0 mm 2 m/s 740 mmHg 70%
    10:00 +13°C° 0 mm 2 m/s 740 mmHg 62%
    11:00 +14°C° 0 mm 2 m/s 740 mmHg 53%
    12:00 +16°C° 0 mm 2 m/s 740 mmHg 44%
    13:00 +17°C° 0 mm 2 m/s 740 mmHg 35%
    14:00 +17°C° 0 mm 2 m/s 739 mmHg 35%
    15:00 +17°C° 0 mm 3 m/s 739 mmHg 34%
    16:00 +17°C° 0 mm 3 m/s 739 mmHg 34%
    17:00 +14°C° 0 mm 3 m/s 738 mmHg 40%
    18:00 +12°C° 0 mm 3 m/s 738 mmHg 45%
    19:00 +10°C° 0 mm 2 m/s 738 mmHg 50%
    20:00 +9°C° 0 mm 2 m/s 738 mmHg 51%
    21:00 +8°C° 0 mm 2 m/s 738 mmHg 51%
    22:00 +7°C° 0 mm 3 m/s 739 mmHg 52%
    23:00 +6°C° 0 mm 2 m/s 739 mmHg 56%
    Voir plus